Terminal Aerodrome Forecast
Issued by NWS

Home | Current Version | Previous Version | Text Only | Print | Product List | Glossary On
Versions: 1 2 3 4 5 6 7 8 9 10 11 12 13 14 15 16 17 18 19 20 21 22 23 24 25 26 27 28 29 30 31 32 33
000
FTUS45 KSLC 082327
TAF36U
TAF
K36U 082327Z 0900/0924 VRB04KT P6SM FEW150
     FM090400 00000KT 3SM BR SKC
     FM091100 00000KT 1/2SM FZFG BKN001
     FM091700 VRB03KT 3SM BR SKC=

USA.gov is the U.S. government's official web portal to all federal, state and local government web resources and services.